Regional Weather Roundup
Issued by NWS

Home | Current Version | Previous Version | Text Only | Print | Product List | Glossary Off
Versions: 1 2 3 4 5 6 7 8 9 10 11 12 13 14 15 16 17 18 19 20 21 22 23 24 25 26 27 28 29 30 31 32 33 34 35 36 37 38 39 40 41 42 43 44 45 46 47 48 49 50

000
ASUS43 KMKX 040200
RWRWI

WISCONSIN REGIONAL WEATHER ROUNDUP
NATIONAL WEATHER SERVICE MILWAUKEE/SULLIVAN WI
800 PM CST SAT DEC 03 2016

NOTE: "FAIR" INDICATES FEW OR NO CLOUDS BELOW 12,000 FEET WITH NO
SIGNIFICANT WEATHER AND/OR OBSTRUCTIONS TO VISIBILITY.

WIZ001-002-006>008-014>016-023>028-040300-
NORTHWEST WISCONSIN

CITY           SKY/WX    TMP DP  RH WIND       PRES   REMARKS
SUPERIOR ARPT  CLOUDY    31  22  68 SW5       30.21F WCI  26
ASHLAND        CLOUDY    30  23  75 VRB6      30.22F WCI  24
HAYWARD        CLOUDY    29  20  69 S8        30.20F WCI  21
SIREN          MOCLDY    29  20  71 S6        30.20F WCI  23
CUMBERLAND     CLOUDY    28  21  74 S5        30.20F WCI  23
RICE LAKE      CLOUDY    28  21  74 SE3       30.22F
CHETEK         CLOUDY    29  22  76 S5        30.22F WCI  23
LADYSMITH      CLOUDY    29  24  80 S5        30.23S WCI  24
EAU CLAIRE     NOT AVBL
MENOMONIE      CLOUDY    30  24  79 CALM      30.21F
NEW RICHMOND   CLOUDY    29  23  76 SE5       30.19F WCI  24
OSCEOLA        CLOUDY    30  23  74 SE7       30.22F WCI  23
$$

WIZ003>005-009-010-017-018-040300-
NORTH CENTRAL WISCONSIN

CITY           SKY/WX    TMP DP  RH WIND       PRES   REMARKS
MANITOWISH WTR CLOUDY    27  23  85 SW7       30.19S WCI  19
ARBOR VITAE    CLOUDY    29  23  76 CALM      30.20S
WOODRUFF       CLOUDY    29  23  76 CALM      30.20S
RHINELANDER    CLOUDY    28  20  71 W5        30.20F WCI  23
EAGLE RIVER    CLOUDY    27  19  72 SW7       30.19F WCI  20
LAND O LAKES   CLOUDY    28  21  75 SW3       30.21S
PHILLIPS       CLOUDY    28  22  80 SW5       30.20S WCI  22
TOMAHAWK       CLOUDY    27  19  72 CALM      30.21F
MEDFORD        CLOUDY    28  22  79 SW5       30.21S WCI  22
MERRILL        CLOUDY    28  22  77 SW3       30.23S
$$

WIZ029-030-035-036-043>047-040300-
CENTRAL WISCONSIN

CITY           SKY/WX    TMP DP  RH WIND       PRES   REMARKS
WAUSAU         CLOUDY    28  21  75 W7        30.22F WCI  21
MOSINEE        CLOUDY    28  25  86 CALM      30.24F
MARSHFIELD     CLOUDY    28  21  75 SE3       30.21F
STEVENS POINT  CLOUDY    28  20  73 CALM      30.25S
WAUPACA        CLOUDY    32  23  68 CALM      30.27S
WAUTOMA        CLOUDY    29  24  82 CALM      30.26F
WISC RAPIDS    CLOUDY    29  23  78 SE3       30.25F
CAMP DOUGLAS   NOT AVBL
$$

WIZ011>013-019>022-031-037>040-048>050-040300-
NORTHEAST WISCONSIN

CITY           SKY/WX    TMP DP  RH WIND       PRES   REMARKS
ANTIGO         CLOUDY    27  20  76 W6        30.21F WCI  20
SHAWANO        CLOUDY    32  24  71 CALM      30.26S
OCONTO         CLOUDY    31  21  67 CALM      30.27F
STURGEON BAY   CLOUDY    31  23  72 SW10      30.27F WCI  22
GREEN BAY      CLOUDY    33  26  75 CALM      30.26F
MANITOWOC      NOT AVBL
APPLETON       CLOUDY    30  19  64 VRB3      30.24F
CLINTONVILLE   CLOUDY    32  23  69 W5        30.25F WCI  27
OSHKOSH        CLOUDY    30  21  69 NW5       30.26S WCI  25
$$

WIZ032>034-041-042-053>061-040300-
SOUTHWEST WISCONSIN

CITY           SKY/WX    TMP DP  RH WIND       PRES   REMARKS
LA CROSSE      MOCLDY    34  26  72 E6        30.23F WCI  29
SPARTA         CLOUDY    31  26  83 CALM      30.24F
VIROQUA        CLOUDY    30  26  86 SE6       30.21S WCI  24
BOSCOBEL       CLOUDY    33  26  75 CALM      30.26F
PRAIRIE DU CHI CLOUDY    33  26  76 E6        30.25S WCI  28
PLATTEVILLE    CLOUDY    32  29  90 SE5       30.25S WCI  28
$$

WIZ056-057-062-063-064-067-068-040300-
SOUTH CENTRAL WISCONSIN

CITY           SKY/WX    TMP DP  RH WIND       PRES   REMARKS
REEDSBURG      CLOUDY    31  26  81 CALM      30.24F
BARABOO/DELLS  CLOUDY    31  24  75 CALM      30.24F
LONE ROCK      NOT AVBL
MINERAL POINT  PTCLDY    32  30  93 SE3       30.24S
MADISON        CLOUDY    32  24  72 CALM      30.26F
MIDDLETON      MOCLDY    33  28  83 CALM      30.26F
WATERTOWN      CLOUDY    30  27  88 CALM      30.27S
MONROE         PTCLDY    32  27  80 SE5       30.25S WCI  27
JANESVILLE     CLOUDY    34  28  80 VRB5      30.27S WCI  30
$$

WIZ051-052-058>065-066-070>072-040300-
SOUTHEAST WISCONSIN

CITY           SKY/WX    TMP DP  RH WIND       PRES   REMARKS
MILWAUKEE      CLOUDY    32  22  66 SW5       30.29S WCI  27
WAUKESHA       CLOUDY    28  21  74 CALM      30.29S
MILWAUKEE/TIMM CLOUDY    30  21  69 CALM      30.29F
RACINE         CLOUDY    32  23  69 CALM      30.31S
BURLINGTON     CLOUDY    31  26  80 CALM      30.28F
KENOSHA        CLOUDY    31  25  78 CALM      30.29S
FOND DU LAC    CLOUDY    30  21  69 SW3       30.27S
SHEBOYGAN      CLOUDY    31  21  66 CALM      30.27F
WEST BEND      CLOUDY    30  25  80 CALM      30.27F
JUNEAU         CLOUDY    29  25  82 CALM      30.27F
$$

LSZ147-162-040300-
LAKE SUPERIOR

STATION/POSITION TIME  TEMP    WIND        PRES    WAVE
                       AIR SEA DIR/SP/G            HT/PER
                 (UTC) (F)     (DEG/KT/KT) (MB)    (FT/S)
DEVILS ISLAND    0100   33     210/  8/ 11 1024.3F
PORT WING        0040   31     160/  2/  3 1023.7F
SAXON HARBOR     0040   32     180/  2/  4 1023.7F
$$

LMZ867-665-643>646-040300-
LAKE MICHIGAN

STATION/POSITION TIME  TEMP    WIND        PRES    WAVE
                       AIR SEA DIR/SP/G            HT/PER
                 (UTC) (F)     (DEG/KT/KT) (MB)    (FT/S)
CHAMBERS ISLAND  0130   34     200/  5/ 10 1024.0S
NORTHPORT PIER   0140   33      CALM  /  4 1024.4S
SISTER BAY       0153   33     190/  7/ 10   N/A
ALGOMA LAKESHORE 0151          260/  6/  8   N/A
KEWAUNEE LAKESHO 0130   32     230/  5/  6 1024.7F
SHEBOYGAN LAKESH 0100   32     240/  7/  8 1026.4S
PORT WASHINGTON  0030   32      10/  1/  3 1026.8F
MILWAUKEE LAKESH 0130   32     280/  3/  4   N/A
S MID LAKE BUOY  2350   35 48  270/ 10/ 14 1026.1F   1/ 3
KENOSHA   LAKESH 0100   32     320/  3/  4 1026.1
$$

TC  - TEMPERATURE IN CELSIUS
VSB - VISIBILITY IN STATUTE MILES
WCI - WIND CHILL INDEX
HX  - HEAT INDEX





USA.gov is the U.S. government's official web portal to all federal, state and local government web resources and services.